x

South Uist Range (03023) Weather Station

1:00am - Thu 25th Dec 2014 All times are GMT.

  • Wind
    7mph
  • Air Temp 42°f
  • Sea Pressure 1017mb
  • South Uist Range
  • South Uist Range

More Historic Weather Station data

Upgrade to MSW Pro to gain access to the past 30 days of data for over 8000 Wavebouys and Weather Stations around the globe.

Join Pro

Comparision Forecast

View Surf forecast
   
Thu 12/25 1:00am 7
mph
1017mb 42f
12:00am 9
mph
1017mb 42f
Wed 12/24 11:00pm 6
mph
1016mb 43f
10:00pm 8
mph
1015mb 44f
9:00pm 13
mph
1014mb 43f
8:00pm 15
mph
1013mb 45f
7:00pm 17 30 mph 1012mb 45f
6:00pm 19
mph
1011mb 46f
5:00pm 19 31 mph 1010mb 46f
4:00pm 19 31 mph 1009mb 46f
3:00pm 23 45 mph 1008mb 45f
2:00pm 26 45 mph 1006mb 46f
1:00pm 32 53 mph 1005mb 46f
12:00pm 32 44 mph 1004mb 46f
11:00am 32 45 mph 1003mb 46f
10:00am 34 48 mph 1002mb 46f
9:00am 33 54 mph 1001mb 45f
8:00am 34 47 mph 1001mb 46f
7:00am 33 47 mph 1000mb 46f
6:00am 34 54 mph 1000mb 43f
5:00am 37 53 mph 1000mb 44f
4:00am 32 53 mph 1000mb 45f
3:00am 33 47 mph 1000mb 45f
2:00am 33 49 mph 1000mb 44f
1:00am 32 45 mph 1000mb 44f
12:00am 28 46 mph 1000mb 42f
Tue 12/23 11:00pm 26 45 mph 1001mb 42f
10:00pm 24 47 mph 1000mb 42f
9:00pm 34 47 mph 1001mb 40f
8:00pm 23 36 mph 1000mb 42f
7:00pm 26 37 mph 1000mb 44f
6:00pm 22 31 mph 1001mb 43f
5:00pm 22 37 mph 1001mb 43f
4:00pm 24 33 mph 1001mb 42f
3:00pm 13 33 mph 1001mb 44f
2:00pm 22 29 mph 1002mb 44f
1:00pm 15 33 mph 1002mb 44f
12:00pm 22 31 mph 1002mb 45f
11:00am 15 36 mph 1002mb 43f
10:00am 24 32 mph 1001mb 44f
9:00am 25 36 mph 1001mb 44f
8:00am 24 36 mph 1001mb 44f
7:00am 25 36 mph 1000mb 45f
6:00am 28 37 mph 1000mb 45f
5:00am 25 38 mph 1000mb 44f
4:00am 23 44 mph 1000mb 43f
3:00am 28 46 mph 1000mb 45f
2:00am 34 45 mph 999mb 44f
1:00am 31 48 mph 999mb 45f
12:00am 34 48 mph 999mb 44f
Mon 12/22 11:00pm 29 54 mph 999mb 45f
10:00pm 30 45 mph 999mb 46f
9:00pm 32 51 mph 999mb 44f
8:00pm 30 49 mph 1000mb 45f
7:00pm 33 46 mph 1000mb 45f
6:00pm 32 44 mph 999mb 46f
5:00pm 30 46 mph 999mb 46f
4:00pm 29 40 mph 999mb 46f
3:00pm 29 41 mph 999mb 46f
2:00pm 31 45 mph 999mb 46f
1:00pm 30 45 mph 999mb 47f
12:00pm 31 39 mph 999mb 46f
11:00am 29 43 mph 1000mb 43f
10:00am 30 43 mph 999mb 46f
9:00am 28 40 mph 999mb 45f
8:00am 29 41 mph 999mb 45f
7:00am 31 46 mph 998mb 46f
6:00am 32 43 mph 998mb 46f
5:00am 32 45 mph 998mb 46f
4:00am 31 48 mph 998mb 46f
3:00am 32 46 mph 998mb 47f
2:00am 32 46 mph 998mb 47f
1:00am 30 41 mph 998mb 47f
12:00am 31 41 mph 999mb 47f
Sun 12/21 11:00pm 32 41 mph 999mb 48f
10:00pm 30 44 mph 999mb 48f
9:00pm 33 40 mph 999mb 48f
8:00pm 26 39 mph 1000mb 49f
7:00pm 29 38 mph 1000mb 49f
6:00pm 26 39 mph 1000mb 48f
5:00pm 33 43 mph 1000mb 47f
4:00pm 28 40 mph 1000mb 50f
3:00pm 30 39 mph 1000mb 50f
2:00pm 29 39 mph 1001mb 50f
1:00pm 28 37 mph 1002mb 50f
12:00pm 28 39 mph 1003mb 50f
11:00am 28 36 mph 1004mb 50f
10:00am 26 38 mph 1004mb 50f
9:00am 28 38 mph 1005mb 50f
8:00am 29 38 mph 1005mb 50f
7:00am 30 40 mph 1005mb 50f
6:00am 30 40 mph 1006mb 50f
5:00am 31 41 mph 1008mb 50f
4:00am 30 41 mph 1009mb 49f
3:00am 30 45 mph 1010mb 49f